Regional Weather Roundup
Issued by NWS

Home | Current Version | Previous Version | Graphics & Text | Print | Product List | Glossary Off
Versions: 1 2 3 4 5 6 7 8 9 10 11 12 13 14 15 16 17 18 19 20 21 22 23 24 25 26 27 28 29 30 31 32 33 34 35 36 37 38 39 40 41 42 43 44 45 46 47 48 49 50

000
ASUS43 KMPX 270001
RWRMN
WEATHER ROUNDUP FOR MINNESOTA
NATIONAL WEATHER SERVICE TWIN CITIES/CHANHASSEN MN
700 PM CDT TUE JUL 26 2016


NOTE: "FAIR" INDICATES FEW OR NO CLOUDS BELOW 12,000 FEET WITH NO
SIGNIFICANT WEATHER AND/OR OBSTRUCTIONS TO VISIBILITY. N/A MEANS
CURRENT SKY AND/OR WEATHER CONDITIONS ARE NOT AVAILABLE.

MNZ060>063-068>070-270100-
   Twin Cities Metro

CITY           SKY/WX    TMP DP  RH WIND       PRES   REMARKS
TWIN CITIES    PTSUNNY   87  65  47 SW15      29.96F
6HR MIN TEMP:  87; 6HR MAX TEMP:  91;

ST PAUL        SUNNY     85  66  53 SW13      29.96S
CRYSTAL        CLOUDY    85  65  51 SW12      29.94F
BLAINE         PTSUNNY   86  66  51 SW10      29.97S
LAKEVILLE      SUNNY     82  68  61 CALM      29.98F
EDEN PRAIRIE   SUNNY     85  68  56 SW10      29.96F
6HR MIN TEMP:  85; 6HR MAX TEMP:  90;

LAKEVILLE      SUNNY     82  68  61 CALM      29.98F
SOUTH ST PAUL  SUNNY     85  65  49 SW10G16   29.96F
LAKE ELMO      FAIR      82  66  57 SW10      29.97F
$$
MNZ001>005-007-008-013>017-022>024-027-028-270100-
   Northwest Minnesota

CITY           SKY/WX    TMP DP  RH WIND       PRES   REMARKS
HALLOCK        CLOUDY    75  64  69 N12       29.98S
ROSEAU         CLOUDY    75  68  78 CALM      29.99R
WARROAD        CLOUDY    77  66  69 CALM      29.99S
THIEF RVR FALL MOSUNNY   76  63  64 NE12      29.97S
CROOKSTON      CLOUDY    82  66  57 N7        29.94F
FOSSTON        MOSUNNY   81  66  61 CALM      29.96S
DETROIT LAKES  CLOUDY    79  68  69 CALM      29.97S
MOORHEAD       PTSUNNY   79  70  73 SW9G17    29.94R
PARK RAPIDS    CLOUDY    79  68  69 CALM      29.96S
MAHNOMEN       FAIR      80  69  69 CALM      29.95S
$$
MNZ006-009>011-018-025>026-270100-
   North Central Minnesota

CITY           SKY/WX    TMP DP  RH WIND       PRES   REMARKS
BAUDETTE       CLOUDY    77  60  55 N7        29.98F
FLAG ISLAND    CLOUDY    79  52  38 N10       29.98S
INTL FALLS     PTSUNNY   79  57  46 N10       29.97R
6HR MIN TEMP:  78; 6HR MAX TEMP:  84;

WASKISH        DRIZZLE   73  66  78 N8G16     29.97F
BIG FORK       MOSUNNY   82  64  54 N6        29.96S
LONGVILLE      CLOUDY    77  70  78 CALM      29.98S
GRAND RAPIDS   PTSUNNY   77  69  76 CALM      29.98F
CRANE LAKE     PTSUNNY   81  61  50 NW5       29.97R
ORR            MOSUNNY   75  64  69 CALM      29.95S
COOK           MOSUNNY   77  63  61 CALM      29.97R
WALKER         FAIR      76  70  80 CALM      29.95F
$$
MNZ012-019>021-037-270100-
   Northeast Minnesota

CITY           SKY/WX    TMP DP  RH WIND       PRES   REMARKS
DULUTH         PTSUNNY   79  68  69 NW6       29.96F
6HR MIN TEMP:  79; 6HR MAX TEMP:  83; 6HR PCP: TRACE;

ELY            SUNNY     81  57  44 NW6       29.97R
HIBBING        MOSUNNY   79  64  60 CALM      29.96S
EVELETH        SUNNY     81  62  53 CALM      29.97F
DULUTH HARBOR    N/A     82  73  74 SW7       29.93S
TWO HARBORS    PTSUNNY   82  72  69 W5        29.93S
SILVER BAY     MOSUNNY   82  66  57 CALM      29.92S
GRAND MARAIS     N/A     65  60  84 W6        29.89F
G MARAIS ARPRT SUNNY     77  57  50 W3        29.97S
$$
MNZ029>031-032-039>041-046>048-054>057-064-270100-
   West Central Minnesota

CITY           SKY/WX    TMP DP  RH WIND       PRES   REMARKS
FERGUS FALLS   MOSUNNY   77  66  69 W7        29.95F
WHEATON        MOSUNNY   79  68  69 SW3       29.97R
MORRIS         CLOUDY    81  66  61 NW5       29.94S
ALEXANDRIA     MOSUNNY   71  63  75 E6        29.97F
ELBOW LAKE     FAIR      78  69  74 NW6       29.95F
WADENA         CLOUDY    75  64  69 S7        29.96F
GLENWOOD       CLOUDY    79  72  78 SE3       29.97F
APPLETON       CLOUDY    81  64  57 CALM      29.94F
BENSON         MOSUNNY   81  66  61 S3        29.93F
ORTONVILLE     CLOUDY    77  64  65 CALM      29.96R
MADISON        CLOUDY    77  66  69 CALM      29.94F
WILLMAR        FAIR      82  72  69 W8        29.97F
$$
MNZ033>034-036-042>043-049>051-058-059-270100-
   Central Minnesota

CITY           SKY/WX    TMP DP  RH WIND       PRES   REMARKS
ST CLOUD       CLOUDY    78  67  68 N14G30    29.98R
6HR MIN TEMP:  78; 6HR MAX TEMP:  87;

SAUK CENTRE    FAIR      69  64  82 E3        29.97F
PAYNESVILLE    CLOUDY    82  70  66 CALM      29.97F
AITKIN         CLOUDY    79  68  69 N3        29.94F
PINE RIVER     CLOUDY    79  70  73 CALM      30.00S
BRAINERD       CLOUDY    75  62  64 SW23G37   29.99R THUNDER
STAPLES        CLOUDY    75  59  57 S12       29.96F
LONG PRAIRIE   CLOUDY    68  63  83 N5        29.97F
LITTLE FALLS   RAIN      66  61  82 NW3       30.01F
LITCHFIELD     MOSUNNY   84  72  65 CALM      29.97F
BUFFALO        CLOUDY    82  67  61 S5        29.97F
MAPLE LAKE     CLOUDY    81  70  68 S3        29.97F
HUTCHINSON     CLOUDY    83  73  70 S5        29.98F
$$
MNZ037-044-045-052-053-270100-
   East Central Minnesota

CITY           SKY/WX    TMP DP  RH WIND       PRES   REMARKS
PRINCETON      CLOUDY    82  66  57 SW5       29.96F
MORA           CLOUDY    79  68  69 SW8       29.97S
CAMBRIDGE      CLOUDY    84  66  54 SW5       29.94F
RUSH CITY      PTSUNNY   83  70  64 SW5       29.95F
MOOSE LAKE     MOSUNNY   77  70  78 CALM      29.94S
HINCKLEY       FAIR      81  73  78 CALM      29.94F
CLOQUET        CLOUDY    77  66  69 W7        29.97S
MCGREGOR       CLOUDY    77  70  78 N3        29.96F
$$
MNZ071>073-080-081-089-090-097-098-270100-
   Southwest Minnesota

CITY           SKY/WX    TMP DP  RH WIND       PRES   REMARKS
MONTEVIDEO     CLOUDY    79  64  61 CALM      29.96F
GRANITE FALLS  CLOUDY    83  73  70 SE3       29.95F
CANBY          CLOUDY    80  67  65 SW3       29.95R
MARSHALL       CLOUDY    84  70  62 S6        29.96F
REDWOOD FALLS  PTSUNNY   85  67  54 S8        29.96F
OLIVIA         CLOUDY    81  70  69 S5        29.96F
PIPESTONE      MOSUNNY   81  70  69 S8        30.00F
WINDOM         MOSUNNY   82  66  57 S7        30.00F
WORTHINGTON    MOSUNNY   80  69  69 S8        30.02
JACKSON        SUNNY     82  63  51 S7        30.02F
TRACY          CLOUDY    82  72  69 S5        29.98F
SLAYTON        CLOUDY    79  68  69 SE7       29.99F
$$
MNZ065>067-074>077-082>085-091>093-270100-
   South Central Minnesota

CITY           SKY/WX    TMP DP  RH WIND       PRES   REMARKS
MANKATO        SUNNY     82  68  61 S7        30.00S
NEW ULM        CLOUDY    82  70  65 S5        29.97F
ST JAMES       MOSUNNY   79  64  61 S6        29.99F
FAIRMONT       SUNNY     82  68  61 S6        30.00F
GLENCOE        SUNNY     85  73  66 S6        29.97F HX  92
FARIBAULT      SUNNY     82  70  65 S5        30.00F
OWATONNA       SUNNY     82  68  61 SW5       30.01F
WASECA         SUNNY     79  68  69 S6        30.02F
ALBERT LEA     SUNNY     82  68  61 SW5       30.01F
$$
MNZ078>079-086>088-094>096-270100-
   Southeast Minnesota

CITY           SKY/WX    TMP DP  RH WIND       PRES   REMARKS
ROCHESTER      SUNNY     82  70  66 SW6       30.03F
6HR MIN TEMP:  82; 6HR MAX TEMP:  86;

RED WING       SUNNY     88  66  48 W8        29.96S HX  90
STANTON        SUNNY     84  66  54 SW8       29.98S
DODGE CENTER   SUNNY     82  66  57 SW8       30.02F
WINONA         SUNNY     86  64  48 SW6       29.99S
AUSTIN         SUNNY     81  68  65 SW5       30.02F
PRESTON        SUNNY     82  68  62 SW3       30.04S
$$
ABBREVIATIONS USED IN REMARKS
   TC - TEMPERATURES IN CELSIUS
  WCI - WIND CHILL INDEX
   HX - HEAT INDEX
  VSB - VISIBILITY
$$




USA.gov is the U.S. government's official web portal to all federal, state and local government web resources and services.